AURA

Last updated on Sun Apr 12 2026 00:02:34 GMT+0000 (Coordinated Universal Time)

1 28376U 04026A 26101.49797029 .00000746 00000+0 16119-3 0 9992 2 28376 98.3361 57.4268 0001553 92.6762 267.4616 14.61226635156477
UTC large
Height (km)
Speed (km/s)
/
Latitude / Longitude
Inclination (degrees)
Orbital Period (minutes)
Azimuth
Elevation
Range (km)
Doppler Factor

Next 0 passes for location: London (51.5072 / 0.1276)

Sorry there are no passes over London.